Location: ??????
(38.2905°N, 23.9007°E)
Time: 07:24:51
(UTC+00:00)

Daily predictions for brighter satellites

Satellite Brightness Start Highest point End
(mag) Time Altitude Azimuth Time Altitude Azimuth Time Altitude Azimuth
NOSS 3-2 (C) 4.3 18:14:09 10° SW 18:19:32 55° NW 18:25:42 10° NNE
Cosmos 292 Rocket 3.8 18:15:42 10° SSW 18:20:32 83° ESE 18:25:22 10° NNE
Meteor 1-22 Rocket 4.4 18:19:41 10° N 18:25:32 81° W 18:31:05 10° S
Cosmos 1378 Rocket 3.7 18:22:20 10° S 18:26:40 82° W 18:31:04 10° N
Okean 1 Rocket 3.2 18:23:39 10° N 18:27:58 57° E 18:32:18 10° SSE
Cosmos 1707 2.8 18:26:06 10° S 18:29:54 59° E 18:33:44 10° NNE
IGS 5A 4.5 18:27:01 10° SE 18:30:41 31° ENE 18:34:21 10° N
Cosmos 1315 Rocket 3.0 18:28:34 10° N 18:32:39 59° E 18:36:41 10° SSE
ERS-2 2.5 18:29:47 10° N 18:33:25 67° WNW 18:37:01 10° SSW
Helios 1A Rocket 3.9 18:30:29 10° S 18:34:22 45° W 18:38:16 10° NNW
Cosmos 1461 4.4 18:32:09 10° N 18:35:35 24° NE 18:38:53 10° ESE
Cosmos 1452 Rocket 3.5 18:30:53 10° SSW 18:36:08 80° ESE 18:41:27 10° NNE
ATLAS CENTAUR R/B 3.9 18:36:07 10° NNE 18:38:09 13° NE 18:40:14 10° ENE
Cosmos 2219 Rocket 3.5 18:34:26 10° SE 18:38:20 19° E 18:42:14 10° NE
Cosmos 2333 Rocket 3.3 18:34:47 10° SSE 18:39:16 24° ESE 18:43:44 10° NE
Resurs 1-3 3.6 18:35:36 10° SSE 18:39:59 80° ENE 18:44:23 10° N
SL-4 R/B 3.6 18:39:30 10° SSE 18:42:08 16° SE 18:44:40 10° E
Cosmos 1727 Rocket 4.1 18:41:14 10° S 18:47:28 66° E 18:53:41 10° NNE
Cosmos 1850 Rocket 4.5 18:43:51 10° N 18:48:58 47° ENE 18:53:17 14° SE
Cosmos 1025 Rocket 4.3 18:46:54 13° SE 18:49:50 24° E 18:53:19 10° NE
Lacrosse 5 rocket 1.5 18:47:36 10° SW 18:51:21 66° NW 18:54:58 10° NE
FALCON 9 DEB 2.7 18:48:20 10° SW 18:51:25 68° SE 18:54:32 10° NE
Cosmos 1605 Rocket 4.2 18:46:08 10° N 18:52:32 82° W 18:58:51 10° S
Cosmos 1331 Rocket 4.2 18:48:27 10° S 18:53:27 49° ESE 18:58:31 10° NNE
Cosmos 1758 3.2 18:49:47 10° N 18:53:45 75° E 18:57:32 11° SSE
BREEZE-M DEB (TANK) 1.0 18:56:51 10° SW 18:59:11 86° SE 19:02:04 10° NE
Cosmos 2360 Rocket 2.2 18:56:34 10° SSW 19:02:13 87° ESE 19:07:54 10° NNE
SPOT 1/Viking Rocket 4.0 19:00:03 16° SE 19:03:54 45° ENE 19:08:47 10° N
Terra 3.9 19:02:34 10° E 19:04:56 14° ENE 19:07:17 10° NNE
KORONAS-FOTON 3.7 19:02:03 10° S 19:05:48 64° E 19:09:32 10° NNE
Cosmos 2322 Rocket 3.2 19:00:51 10° SW 19:06:21 50° WNW 19:11:55 10° NNE
SL-16 R/B 3.8 19:01:11 10° SW 19:06:26 38° WNW 19:11:43 10° N
FALCON 9 DEB 3.8 19:04:11 10° WSW 19:07:11 51° NW 19:10:14 10° NE
Cosmos 1674 2.5 19:06:31 11° S 19:10:06 74° E 19:13:48 10° N
Cosmos 1726 3.5 19:06:51 10° NNW 19:10:13 36° W 19:13:34 10° SSW
SPOT 5 4.3 19:09:02 15° ESE 19:11:49 24° ENE 19:15:43 10° NNE
OBJECT-B 3.7 19:10:21 10° WSW 19:11:56 13° W 19:13:31 10° WNW
CZ-2C R/B 3.8 19:07:50 10° NNE 19:12:37 67° ESE 19:17:19 10° S
USA 245 4.4 19:11:02 19° SE 19:14:23 51° ENE 19:19:58 10° N
Cosmos 1459 Rocket 4.2 19:08:55 10° N 19:14:49 52° E 19:19:00 19° SSE
Cosmos 1975 Rocket 3.0 19:10:31 10° S 19:14:52 87° W 19:19:17 10° N
FALCON 9 DEB 3.5 19:11:59 10° WSW 19:15:02 58° NW 19:18:08 10° NE
ASTRO E2 3.6 19:13:27 10° WSW 19:16:55 29° S 19:17:59 25° SSE
FALCON 9 DEB 4.2 19:14:45 10° WSW 19:17:44 43° NW 19:20:44 10° NE
Cosmos 1953 2.4 19:14:05 10° N 19:18:07 58° E 19:20:21 24° SSE
Cosmos 1000 Rocket 4.4 19:16:56 10° S 19:23:02 73° E 19:29:10 10° N
Cosmos 1741 Rocket 4.0 19:18:21 10° NNW 19:23:39 86° WSW 19:27:20 20° SSE
Resurs 01 Rocket 2.2 19:22:10 13° S 19:25:56 56° W 19:30:16 10° NNW
Ariane Rocket 4.3 19:22:13 10° SSW 19:26:52 36° W 19:31:34 10° NNW
Meteor 1-16 Rocket 4.0 19:21:35 10° N 19:27:00 79° E 19:30:36 21° SSE
Lacrosse 5 3.2 19:22:54 10° WNW 19:27:20 31° WSW 19:30:41 15° S
Cosmos 2322 3.6 19:24:09 10° S 19:29:43 67° ESE 19:35:20 10° NNE
Cosmos 1300 4.2 19:27:49 10° NNE 19:30:46 21° ENE 19:31:23 20° E
COSMOS 2428 3.0 19:27:15 17° S 19:31:23 46° ESE 19:36:50 10° NE
Landsat 7 4.2 19:28:27 16° S 19:32:11 61° W 19:36:55 10° NNW
SPOT 3 Rocket 3.9 19:28:31 16° S 19:32:40 65° WSW 19:37:50 10° NNW
Cosmos 1340 2.8 19:32:47 34° SSE 19:34:02 50° E 19:37:42 10° NNE
Aureole 1 Rocket 4.3 19:28:22 10° NNW 19:34:49 80° ENE 19:40:11 23° SSE
Cosmos 2278 Rocket 4.3 19:32:35 10° NNE 19:35:44 15° NE 19:38:54 10° E
Cosmos 1844 Rocket 2.7 19:31:54 10° NNW 19:37:37 86° ENE 19:40:50 27° SSE
BREEZE-M DEB (TANK) 3.2 19:42:00 10° NW 19:44:34 28° NNE 19:44:52 27° NE
Cosmos 2123 Rocket 4.0 19:45:08 21° S 19:49:26 73° E 19:55:45 10° N
Cosmos 968 Rocket 4.5 19:47:08 10° N 19:51:44 32° ENE 19:53:29 26° E
Uosat 12 SS-18 rocket 3.9 19:49:53 18° SSW 19:53:03 76° ESE 19:57:47 10° NE
Cosmos 2061 Rocket 4.1 19:48:15 10° N 19:54:41 69° E 19:57:52 31° SSE
Cosmos 1626 3.0 19:55:02 21° SW 19:57:13 46° W 20:00:48 10° N
Cosmos 1908 4.1 19:55:25 10° NNW 19:59:05 43° W 20:00:43 27° SSW
Cosmos 1544 Rocket 3.7 19:56:05 10° NNW 20:00:32 72° W 20:02:15 36° S
ARIANE 5 R/B 2.6 20:01:01 40° S 20:02:36 79° WSW 20:07:07 10° NNW
Cosmos 1455 Rocket 4.3 20:00:45 10° NNW 20:04:50 36° W 20:07:25 19° SSW
ATLAS 3B R/B 3.1 19:59:58 10° SW 20:06:23 60° NW 20:13:02 10° NNE
ATLAS CENTAUR R/B 4.0 20:10:24 22° E 20:10:24 22° E 20:15:20 10° NE
Cosmos 1980 4.3 20:09:27 35° ESE 20:09:56 36° ESE 20:15:05 10° NE
Cosmos 1346 Rocket 3.5 20:11:36 39° E 20:11:36 39° E 20:15:02 10° NNE
Cosmos 1461 4.1 20:11:04 10° NW 20:14:36 28° WSW 20:15:24 26° SW
ATLAS CENTAUR R/B 1.5 20:13:05 10° NNW 20:17:32 84° WSW 20:18:22 60° SSE
SL-08 R/B 4.5 20:12:45 10° N 20:19:08 84° W 20:21:52 36° S
Cosmos 405 3.1 20:16:26 10° NNW 20:19:49 64° W 20:19:49 64° W
SL-4 R/B 2.1 20:17:09 10° WSW 20:21:24 73° NW 20:25:20 10° NE
Meteor 2-5 Rocket 3.7 20:18:44 31° SSW 20:21:31 77° W 20:27:08 10° N
SL-8 R/B 3.6 20:16:53 10° WNW 20:21:40 70° SW 20:22:21 60° SSE
Cosmos 2219 Rocket 2.9 20:16:15 10° SW 20:21:46 54° WNW 20:27:21 10° NNE
Cosmos 2333 Rocket 3.2 20:17:42 10° SW 20:23:11 45° WNW 20:28:40 10° N
Cosmos 2016 Rocket 4.2 20:17:23 10° NNW 20:23:25 65° W 20:26:21 32° SSW
ERS-1 Rocket 3.2 20:24:08 42° SSW 20:25:43 64° WSW 20:30:45 10° NNW
Geosat 3.9 20:24:37 52° SSE 20:25:52 84° WSW 20:30:55 10° NNW
Cosmos 1536 Rocket 4.5 20:28:12 28° SW 20:30:06 45° W 20:34:22 10° N
USA 215 3.2 20:29:26 10° NE 20:35:51 56° SE 20:38:12 38° S
Cosmos 2228 3.2 20:32:56 10° N 20:37:16 60° E 20:37:16 60° E
Cosmos 1725 Rocket 4.3 20:31:46 10° NNW 20:37:49 58° W 20:40:27 33° SSW
SL-24 R/B 4.5 20:35:28 10° N 20:40:16 73° W 20:41:24 51° SSW
SL-16 R/B 3.9 20:42:05 19° E 20:42:05 19° E 20:44:53 10° NE
Terra 2.0 20:41:19 53° SW 20:42:07 61° W 20:46:50 10° NNW
Cosmos 2237 Rocket 2.1 20:41:58 58° SSE 20:42:45 65° ESE 20:48:19 10° NNE
DNEPR-1 R/B 3.8 20:39:19 10° NW 20:43:30 55° WSW 20:43:36 55° SW
SPOT 5 4.0 20:48:16 31° SW 20:49:40 37° W 20:54:14 10° NNW
Meteor 1-24 Rocket 4.3 20:51:24 30° SW 20:53:39 48° WNW 20:58:57 10° N
Cosmos 192 4.5 20:54:50 58° E 20:54:50 58° E 20:59:20 10° NNE
Cosmos 1455 3.4 20:52:27 10° N 20:55:06 34° NE 20:55:06 34° NE
Cosmos 1503 Rocket 4.3 20:51:46 10° N 20:57:03 55° ENE 20:57:38 52° E
Okean 1-7 Rocket 4.2 21:16:49 49° NE 21:16:49 49° NE 21:20:20 10° NNE
Cosmos 2278 Rocket 2.0 21:14:50 10° NNW 21:20:32 83° WSW 21:20:55 77° SSW
Cosmos 2034 Rocket 4.3 21:18:35 10° N 21:24:35 51° E 21:25:17 49° ESE
Cosmos 1726 Rocket 4.1 21:23:02 10° NNW 21:26:54 53° WNW 21:26:54 53° WNW
Cosmos 2058 Rocket 3.5 21:23:27 10° N 21:27:08 60° N 21:27:08 60° N
Cosmos 1867 4.0 21:23:46 10° NW 21:28:54 51° WSW 21:28:54 51° WSW
Meteor 1-21 Rocket 4.1 21:32:05 78° SW 21:32:28 85° W 21:38:12 10° N
Spot 4 4.0 21:41:10 70° NW 21:41:10 70° NW 21:45:29 10° NNW
SJ 16-02 3.1 21:37:11 10° N 21:40:30 24° ENE 21:40:30 24° ENE
Cosmos 1777 Rocket 4.3 21:37:29 10° N 21:42:42 57° ENE 21:42:42 57° ENE
Cosmos 1943 Rocket 3.4 21:41:25 10° N 21:46:13 30° ENE 21:47:23 27° E
Tsikada Rocket 3.9 21:49:24 66° ESE 21:49:45 68° E 21:55:52 10° NNE
USA 229 DEB 3.9 21:51:22 47° E 21:51:22 47° E 21:57:12 10° NE
USA 229 3.9 21:51:30 46° E 21:51:30 46° E 21:57:17 10° NE
ALOS 2 3.2 21:57:54 54° N 21:57:54 54° N 22:01:20 10° NNW
BREEZE-M DEB (TANK) 4.3 21:49:27 10° W 21:57:35 37° NW 22:00:36 10° NE
NOSS 3-1 (C) 3.1 21:59:23 82° NE 21:59:23 82° NE 22:05:05 10° NNE
NOSS 3-1 (A) 3.5 22:11:32 52° E 22:11:32 52° E 22:16:26 10° NE
Cosmos 724 4.4 22:04:40 10° NNW 22:10:49 72° ENE 22:11:24 67° E
Cosmos 1626 Rocket 4.5 22:12:19 45° NW 22:12:19 45° NW 22:15:48 10° N
Cosmos 1607 4.4 22:07:03 10° NW 22:12:53 48° WSW 22:12:53 48° WSW
USA 215 4.2 22:12:37 10° NE 22:18:42 43° NNW 22:24:47 10° WSW
Cosmos 1602 Rocket 4.4 22:20:35 49° NNW 22:20:35 49° NNW 22:24:04 10° N
SL-16 R/B 2.6 22:23:55 50° W 22:24:33 52° WNW 22:30:06 10° NNE
Cosmos 2237 Rocket 4.4 22:23:44 11° W 22:27:18 18° NW 22:31:07 10° N
Cosmos 1758 Rocket 4.3 22:28:38 50° N 22:28:38 50° N 22:31:56 10° N
Cosmos-2242 3.9 22:30:15 10° N 22:33:34 48° NNE 22:33:34 48° NNE
GEOS 3 Rocket 4.3 22:38:08 44° W 22:38:08 44° W 22:42:17 10° NW
Cosmos 2279 Rocket 4.2 22:33:27 10° N 22:39:36 57° E 22:40:23 53° ESE
Cosmos 2369 Rocket 3.1 22:34:58 10° N 22:40:24 43° ENE 22:41:39 38° E
Cosmos 468 Rocket 4.2 22:42:30 64° ENE 22:42:30 64° ENE 22:47:05 10° NNE
Cosmos 1634 Rocket 3.8 22:36:44 10° N 22:43:05 83° W 22:43:33 76° SSW
ATLAS 5 CENTAUR R/B 4.0 22:47:38 12° ENE 22:47:38 12° ENE 22:48:09 10° ENE
USA 267 3.3 22:46:54 36° ESE 22:49:44 73° NE 22:56:16 10° NW
PSLV R/B 4.3 22:48:36 10° N 22:52:04 53° NNW 22:52:04 53° NNW
Cosmos 1763 Rocket 3.5 22:55:46 74° N 22:55:46 74° N 23:00:26 10° NNE
Meteor 2-13 Rocket 4.3 22:56:37 74° SE 22:57:05 80° E 23:03:16 10° N
Cosmos 2098 Rocket 4.4 22:59:51 37° E 22:59:51 37° E 23:04:12 10° NNE
Cosmos 2221 4.0 23:00:19 10° NNE 23:03:51 29° ENE 23:03:51 29° ENE
Cosmos 2297 4.4 23:01:40 10° NW 23:06:11 41° W 23:06:11 41° W
Thor Agena Rocket 4.5 23:04:42 10° N 23:09:27 37° WNW 23:09:46 36° WNW
Nadezhda 4 Rocket 4.1 23:10:11 55° SE 23:10:59 59° E 23:16:59 10° NNE
USA 308 4.0 23:18:32 39° ENE 23:18:32 39° ENE 23:21:17 10° NE
Resurs 1-4 Rocket 3.2 23:13:09 10° NE 23:17:54 32° E 23:18:23 32° ESE
SJ 16-02 3.3 23:15:37 10° NW 23:17:27 20° WNW 23:17:27 20° WNW
Exosat Rocket 4.1 23:20:17 54° WSW 23:21:24 63° WNW 23:26:49 10° NNE
Helios 1B rocket 4.5 23:19:37 10° NE 23:22:14 19° E 23:22:14 19° E
ADEOS II 4.1 23:24:05 10° NE 23:27:30 17° E 23:28:57 16° ESE
Cosmos 1943 Rocket 3.2 23:24:58 10° NW 23:28:53 32° W 23:28:53 32° W
Helios 1A 3.4 23:32:32 60° NNE 23:32:32 60° NNE 23:36:08 10° N
Cosmos 540 Rocket 3.4 23:32:30 74° WNW 23:32:30 74° WNW 23:37:36 10° NNE
X-37B 3.2 23:33:14 22° NNE 23:33:14 22° NNE 23:35:14 10° ENE
Cosmos 1932 4.4 23:28:00 10° NNW 23:34:13 77° ENE 23:36:16 44° SE
USA 305 3.4 23:35:05 56° NNE 23:35:05 56° NNE 23:38:35 10° NE
Cosmos 1943 3.5 23:36:45 52° W 23:37:25 55° WNW 23:42:58 10° NNE
Cosmos 1437 Rocket 3.8 23:34:37 10° N 23:37:14 41° NNW 23:37:14 41° NNW
CZ-2D R/B 2.5 23:34:44 10° NNE 23:39:47 49° E 23:40:22 47° ESE
Cosmos 841 Rocket 3.4 23:44:06 67° W 23:44:18 68° WNW 23:49:27 10° NNE
Lacrosse 4 Rocket 3.4 23:41:08 10° N 23:44:30 24° NE 23:46:46 15° E
Aureole 3 Rocket 4.0 23:42:45 10° N 23:47:00 52° E 23:48:21 41° SE
Cosmos 1603 4.3 23:46:12 40° W 23:47:12 44° WNW 23:52:36 10° N
NOSS 2-2 (C) 4.2 23:49:46 40° NNE 23:49:46 40° NNE 23:52:10 10° NNE
DELTA 2 R/B (1) 3.5 23:47:09 49° W 23:48:40 82° N 23:54:15 10° E
SL-16 R/B 3.0 23:46:03 28° SE 23:49:11 55° ENE 23:55:12 10° N
Meteor 2-19 Rocket 4.5 23:49:23 53° SSE 23:50:50 75° E 23:56:57 10° N
Cosmos 1092 Rocket 3.9 23:51:32 53° SSE 23:53:01 77° E 23:59:09 10° N
Cosmos 1825 4.0 23:54:28 23° NW 23:54:28 23° NW 23:56:36 10° NNW
Cosmos 1242 Rocket 3.5 23:52:39 10° N 23:55:13 45° N 23:55:13 45° N
